Cleveland, OH

9:31 PM EDT on June 25, 2017 (GMT -0400)
Cleveland-Hopkins International

Weather History for KCLE - March, 2014

Change the Weather History Date:

Tuesday, March 25, 2014

  Actual Average Record
Temperature  
Mean Temperature 29 °F 42 °F  
Max Temperature 38 °F 50 °F 83 °F (1945)
Min Temperature 19 °F 33 °F 4 °F (1974)
Degree Days  
Heating Degree Days 36 24  
Month to date heating degree days 842 691  
Since 1 July heating degree days 5523 4908  
Cooling Degree Days 0 0  
Month to date cooling degree days 0 0  
Year to date cooling degree days 0 0  
Moisture  
Dew Point 17 °F    
Average Humidity 57    
Maximum Humidity 81    
Minimum Humidity 32    
Precipitation  
Precipitation 0.09 in 0.10 in 1.78 in (1954)
Month to date precipitation 1.26 2.28  
Year to date precipitation 6.29 7.34  
Snow  
Snow 1.10 in 0.30 in - ()
Month to date snowfall 8.8 10.8  
Since 1 July snowfall 78.5 63.0  
Snow Depth 0.00 in    
Sea Level Pressure  
Sea Level Pressure 30.03 in    
Wind  
Wind Speed 12 mph (WNW)    
Max Wind Speed 22 mph    
Max Gust Speed 27 mph    
Visibility 6 miles    
Events Fog , Snow    
T = Trace of Precipitation, MM = Missing Value Source: NWS Daily Summary

Daily Weather History Graph

Daily Weather History Graph

Search for Another Location

Airport or City:

Trip Planner

Search our weather history database for the weather conditions in past years. The results will help you decide how hot, cold, wet, or windy it might be!

Date:

Astronomy

Mar. 25, 2014 Rise Set
Actual Time 7:22 AM EDT 7:45 PM EDT
Civil Twilight 6:54 AM EDT 8:12 PM EDT
Nautical Twilight 6:22 AM EDT 8:45 PM EDT
Astronomical Twilight 5:48 AM EDT 9:18 PM EDT
Moon 3:46 AM EDT (3/25) 2:10 PM EDT (3/25)
Length of Visible Light 13h 18m
Length of Day
12h 22m
Waning Crescent, 32% of the Moon is Illuminated
Mar 25
Waning Crescent
Mar 30
New
Apr 7
First Quarter
Apr 15
Full
Apr 22
Last Quarter

Hourly Weather History & Observations

Time (EDT) Temp. Windchill Dew Point Humidity Pressure Visibility Wind Dir Wind Speed Gust Speed Precip Events Conditions
12:51 AM 24.1 °F 16.0 °F 12.9 °F 62% 30.14 in 10.0 mi WSW 6.9 mph - N/A   Mostly Cloudy
1:51 AM 21.9 °F 14.5 °F 12.0 °F 66% 30.13 in 10.0 mi WSW 5.8 mph - N/A   Partly Cloudy
2:51 AM 23.0 °F 17.0 °F 12.0 °F 63% 30.12 in 10.0 mi West 4.6 mph - N/A   Scattered Clouds
3:51 AM 24.1 °F 19.7 °F 10.0 °F 55% 30.09 in 10.0 mi West 3.5 mph - N/A   Mostly Cloudy
4:51 AM 21.0 °F - 12.0 °F 68% 30.07 in 10.0 mi Calm Calm - N/A   Scattered Clouds
5:51 AM 19.0 °F 10.0 °F 12.0 °F 74% 30.05 in 10.0 mi SSE 6.9 mph - N/A   Scattered Clouds
6:51 AM 19.0 °F 11.1 °F 12.0 °F 74% 30.04 in 10.0 mi South 5.8 mph - N/A   Partly Cloudy
7:51 AM 21.0 °F 13.4 °F 12.0 °F 68% 30.03 in 10.0 mi South 5.8 mph - N/A   Partly Cloudy
8:51 AM 25.0 °F 15.5 °F 15.1 °F 66% 30.02 in 10.0 mi South 9.2 mph - N/A   Scattered Clouds
9:51 AM 30.0 °F 19.5 °F 12.9 °F 49% 30.01 in 10.0 mi SSW 13.8 mph - N/A   Scattered Clouds
10:51 AM 33.1 °F 24.9 °F 12.9 °F 43% 30.00 in 10.0 mi South 10.4 mph - N/A   Mostly Cloudy
11:51 AM 35.1 °F 25.2 °F 9.0 °F 34% 29.99 in 10.0 mi SSW 16.1 mph - N/A   Mostly Cloudy
12:51 PM 37.0 °F 28.1 °F 10.0 °F 33% 29.97 in 10.0 mi SW 15.0 mph - N/A   Mostly Cloudy
1:51 PM 37.0 °F 28.9 °F 10.0 °F 33% 29.96 in 10.0 mi WSW 12.7 mph 23.0 mph N/A   Overcast
2:51 PM 34.0 °F 22.4 °F 19.0 °F 54% 29.96 in 5.0 mi West 20.7 mph - 0.00 in Snow Light Snow
2:57 PM 33.1 °F 22.2 °F 21.0 °F 61% 29.94 in 2.5 mi WNW 17.3 mph - 0.00 in Snow Light Snow
3:08 PM 30.9 °F 18.7 °F 23.0 °F 72% 29.94 in 0.8 mi NW 19.6 mph - 0.00 in Snow Light Snow
3:19 PM 28.9 °F 18.6 °F 24.1 °F 82% 29.95 in 0.2 mi NNW 12.7 mph - 0.00 in Snow Heavy Snow
3:27 PM 28.0 °F 16.5 °F 24.1 °F 85% 29.95 in 0.2 mi NW 15.0 mph 21.9 mph 0.01 in Fog , Snow Heavy Snow
3:46 PM 28.4 °F 19.1 °F 23.0 °F 80% 29.95 in 1.0 mi NW 10.4 mph - 0.02 in Fog , Snow Light Snow
3:51 PM 28.0 °F 16.5 °F 23.0 °F 81% 29.98 in 0.8 mi NW 15.0 mph - 0.02 in Snow Light Snow
4:02 PM 28.0 °F 18.1 °F 21.9 °F 78% 29.95 in 1.0 mi WNW 11.5 mph 21.9 mph 0.00 in Snow Light Snow
4:10 PM 28.0 °F 18.6 °F 21.0 °F 75% 29.95 in 3.0 mi WNW 10.4 mph - 0.00 in Snow Light Snow
4:46 PM 30.2 °F 19.3 °F 21.2 °F 69% 29.96 in 2.0 mi WNW 15.0 mph 21.9 mph 0.00 in Snow Light Snow
4:51 PM 30.0 °F 19.1 °F 21.9 °F 72% 29.99 in 3.0 mi WNW 15.0 mph - 0.00 in Snow Light Snow
5:11 PM 28.9 °F 17.3 °F 21.0 °F 72% 29.96 in 2.5 mi WNW 16.1 mph - 0.00 in Snow Light Snow
5:17 PM 28.9 °F 18.2 °F 21.9 °F 75% 29.97 in 0.8 mi NW 13.8 mph - 0.00 in Snow Light Snow
5:28 PM 28.9 °F 19.2 °F 23.0 °F 78% 29.97 in 2.0 mi WNW 11.5 mph - 0.00 in Snow Light Snow
5:35 PM 30.0 °F 20.5 °F 24.1 °F 79% 29.97 in 6.0 mi WNW 11.5 mph - 0.00 in Snow Light Snow
5:46 PM 30.2 °F 21.3 °F 21.2 °F 69% 29.97 in 9.0 mi WNW 10.4 mph - 0.00 in   Mostly Cloudy
5:51 PM 30.9 °F 21.2 °F 19.9 °F 64% 30.00 in 9.0 mi West 12.7 mph - 0.00 in   Mostly Cloudy
6:51 PM 30.9 °F 20.2 °F 17.1 °F 57% 30.03 in 10.0 mi WNW 15.0 mph - N/A   Scattered Clouds
7:51 PM 28.9 °F 17.3 °F 16.0 °F 58% 30.05 in 10.0 mi WNW 16.1 mph - N/A   Scattered Clouds
8:51 PM 28.0 °F 17.0 °F 17.1 °F 63% 30.07 in 10.0 mi WNW 13.8 mph - N/A   Scattered Clouds
9:51 PM 28.0 °F 18.1 °F 16.0 °F 61% 30.09 in 10.0 mi WNW 11.5 mph - 0.00 in   Mostly Cloudy
10:35 PM 26.1 °F 15.0 °F 17.1 °F 69% 30.08 in 6.0 mi NW 12.7 mph - 0.00 in Snow Light Snow
10:51 PM 27.0 °F 14.7 °F 15.1 °F 61% 30.11 in 9.0 mi NW 16.1 mph - 0.00 in Snow Light Snow
11:22 PM 25.0 °F 12.2 °F 18.0 °F 75% 30.10 in 2.0 mi NW 16.1 mph - 0.00 in Snow Light Snow
11:28 PM 25.0 °F 12.2 °F 18.0 °F 75% 30.10 in 1.2 mi NW 16.1 mph - 0.00 in Snow Light Snow
11:36 PM 25.0 °F 12.2 °F 18.0 °F 75% 30.10 in 5.0 mi NW 16.1 mph - 0.00 in Snow Light Snow
11:45 PM 24.8 °F 11.9 °F 17.6 °F 74% 30.10 in 1.8 mi NW 16.1 mph - 0.00 in Snow Light Snow
11:47 PM 24.8 °F 12.4 °F 17.6 °F 74% 30.11 in 1.0 mi NNW 15.0 mph - 0.00 in Snow Light Snow
11:51 PM 24.1 °F 11.0 °F 19.0 °F 81% 30.14 in 0.5 mi NNW 16.1 mph - 0.01 in Snow Snow